Zurück zum Katalog

STARLINK-11742

AktivKommunikationVLEO
NORAD 64377·PAYLOAD·🇺🇸 United States

Gestartet Jun 13, 2025 von Cape Canaveral Space Force Station

Loading…

Nächste Überflüge (nächste 24 Stunden)

TLE

AktuellSource: CelesTrak SupGP

Epoche: Sep 14, 2026, 21:40 UTC

1 64377C 25127H   26257.90326389  .00072736  00000+0  56478-3 0  2570
2 64377  43.0009  24.2264 0001861 280.9103 252.1693 15.70808345    14

Verfolge STARLINK-11742 in Echtzeit mit AllMySat

Download on the App Store